Regional Weather Roundup
Issued by NWS

Current Version | Previous Version | Text Only | Print | Product List | Glossary On
Versions: 1 2 3 4 5 6 7 8 9 10 11 12 13 14 15 16 17 18 19 20 21 22 23 24 25 26 27 28 29 30 31 32 33 34 35 36 37 38 39 40 41 42 43 44 45 46 47 48 49 50
000
ASUS43 KLMK 250410
RWRKY
KENTUCKY REGIONAL WEATHER ROUNDUP
NATIONAL WEATHER SERVICE LOUISVILLE KY
1100 PM EST SAT JAN 24 2015

NOTE "FAIR" INDICATES FEW OR NO CLOUDS BELOW 12,000 FEET
WITH NO SIGNIFICANT WEATHER AND/OR OBSTRUCTIONS TO VISIBILITY.

KYZ001>023-026-027-061>063-070>075-250500-
WESTERN AND SOUTH CENTRAL KENTUCKY

CITY           SKY/WX    TMP DP  RH WIND       PRES   REMARKS
PADUCAH        MOCLDY    44  31  60 SW10      29.83F
HENDERSON      MOCLDY    39  30  70 SW9       29.81S WCI  33
OWENSBORO      MOCLDY    37  31  79 S7        29.82F WCI  31
HOPKINSVILLE   CLEAR     39  28  66 S7        29.86F WCI  34
BOWLING GREEN  CLEAR     33  27  78 CALM      29.87S
GLASGOW        CLEAR     35  30  82 CALM      29.87S
$$

KYZ024-025-028>034-038-045-046-053-250500-
NORTH CENTRAL KENTUCKY

CITY           SKY/WX    TMP DP  RH WIND       PRES   REMARKS
LOUISVILLE/SDF CLEAR     38  30  73 S3        29.82F
LOUISVILLE/LOU CLEAR     36  30  79 S5        29.82F WCI  32
FORT KNOX      CLEAR     33  29  86 SW3       29.81F
$$

KYZ035>037-039>044-047>052-055>060-089>105-250500-
NORTHEAST KENTUCKY

CITY           SKY/WX    TMP DP  RH WIND       PRES   REMARKS
LEXINGTON      CLEAR     31  28  89 S9        29.82F WCI  23
COVINGTON      MOCLDY    33  27  78 S10       29.78F WCI  25
FRANKFORT      CLEAR     32  28  85 S7        29.81F WCI  26
$$

KYZ054-064>069-076>088-106>120-250500-
SOUTHEAST KENTUCKY

CITY           SKY/WX    TMP DP  RH WIND       PRES   REMARKS
JACKSON        CLEAR     32  29  88 SW5       29.85S WCI  27
LONDON         CLEAR     30  25  81 CALM      29.87F HAZE
SOMERSET       CLEAR     30  30 100 CALM      29.89F FOG
MIDDLESBORO    CLEAR     29  28  94 CALM      29.91S
MONTICELLO     CLEAR     33  29  86 CALM      29.91S
$$




USA.gov is the U.S. government's official web portal to all federal, state and local government web resources and services.